Year,Month,Day,Hour,Minute,Value (Times are PST for temperature in C)
2012,08,04,00,00,14.80
2012,08,04,00,01,14.70
2012,08,04,00,02,14.70
2012,08,04,00,03,14.70
2012,08,04,00,04,14.70
2012,08,04,00,05,14.70
2012,08,04,00,06,14.70
2012,08,04,00,07,14.70
2012,08,04,00,08,14.70
2012,08,04,00,09,14.70
2012,08,04,00,10,14.70
2012,08,04,00,11,14.70
2012,08,04,00,12,14.70
2012,08,04,00,13,14.60
2012,08,04,00,14,14.60
2012,08,04,00,15,14.60
2012,08,04,00,16,14.60
2012,08,04,00,17,14.60
2012,08,04,00,18,14.60
2012,08,04,00,19,14.60
2012,08,04,00,20,14.50
2012,08,04,00,21,14.50
2012,08,04,00,22,14.50
2012,08,04,00,23,14.50
2012,08,04,00,24,14.50
2012,08,04,00,25,14.50
2012,08,04,00,26,14.50
2012,08,04,00,27,14.50
2012,08,04,00,28,14.40
2012,08,04,00,29,14.40
2012,08,04,00,30,14.40
2012,08,04,00,31,14.40
2012,08,04,00,32,14.40
2012,08,04,00,33,14.40
2012,08,04,00,34,14.40
2012,08,04,00,35,14.40
2012,08,04,00,36,14.40
2012,08,04,00,37,14.40
2012,08,04,00,38,14.40
2012,08,04,00,39,14.40
2012,08,04,00,40,14.40
2012,08,04,00,41,14.40
2012,08,04,00,42,14.40
2012,08,04,00,43,14.40
2012,08,04,00,44,14.50
2012,08,04,00,45,14.60
2012,08,04,00,46,14.60
2012,08,04,00,47,14.70
2012,08,04,00,48,14.70
2012,08,04,00,49,14.80
2012,08,04,00,50,14.90
2012,08,04,00,51,14.90
2012,08,04,00,52,14.90
2012,08,04,00,53,14.90
2012,08,04,00,54,14.90
2012,08,04,00,55,14.90
2012,08,04,00,56,14.90
2012,08,04,00,57,14.90
2012,08,04,00,58,15.00
2012,08,04,00,59,15.00
2012,08,04,01,00,15.00
2012,08,04,01,01,15.00
2012,08,04,01,02,14.90
2012,08,04,01,03,14.90
2012,08,04,01,04,14.90
2012,08,04,01,05,14.90
2012,08,04,01,06,14.80
2012,08,04,01,07,14.80
2012,08,04,01,08,14.70
2012,08,04,01,09,14.70
2012,08,04,01,10,14.70
2012,08,04,01,11,14.60
2012,08,04,01,12,14.60
2012,08,04,01,13,14.60
2012,08,04,01,14,14.50
2012,08,04,01,15,14.50
2012,08,04,01,16,14.50
2012,08,04,01,17,14.50
2012,08,04,01,18,14.40
2012,08,04,01,19,14.40
2012,08,04,01,20,14.40
2012,08,04,01,21,14.40
2012,08,04,01,22,14.40
2012,08,04,01,23,14.40
2012,08,04,01,24,14.40
2012,08,04,01,25,14.40
2012,08,04,01,26,14.40
2012,08,04,01,27,14.40
2012,08,04,01,28,14.40
2012,08,04,01,29,14.40
2012,08,04,01,30,14.40
2012,08,04,01,31,14.40
2012,08,04,01,32,14.50
2012,08,04,01,33,14.50
2012,08,04,01,34,14.50
2012,08,04,01,35,14.50
2012,08,04,01,36,14.60
2012,08,04,01,37,14.60
2012,08,04,01,38,14.60
2012,08,04,01,39,14.60
2012,08,04,01,40,14.60
2012,08,04,01,41,14.70
2012,08,04,01,42,14.70
2012,08,04,01,43,14.70
2012,08,04,01,44,14.70
2012,08,04,01,45,14.70
2012,08,04,01,46,14.70
2012,08,04,01,47,14.70
2012,08,04,01,48,14.70
2012,08,04,01,49,14.70
2012,08,04,01,50,14.70
2012,08,04,01,51,14.70
2012,08,04,01,52,14.60
2012,08,04,01,53,14.60
2012,08,04,01,54,14.50
2012,08,04,01,55,14.50
2012,08,04,01,56,14.40
2012,08,04,01,57,14.40
2012,08,04,01,58,14.40
2012,08,04,01,59,14.30
2012,08,04,02,00,14.30
2012,08,04,02,01,14.30
2012,08,04,02,02,14.30
2012,08,04,02,03,14.30
2012,08,04,02,04,14.20
2012,08,04,02,05,14.20
2012,08,04,02,06,14.20
2012,08,04,02,07,14.20
2012,08,04,02,08,14.20
2012,08,04,02,09,14.20
2012,08,04,02,10,14.10
2012,08,04,02,11,14.10
2012,08,04,02,12,14.10
2012,08,04,02,13,14.10
2012,08,04,02,14,14.10
2012,08,04,02,15,14.10
2012,08,04,02,16,14.10
2012,08,04,02,17,14.10
2012,08,04,02,18,14.10
2012,08,04,02,19,14.10
2012,08,04,02,20,14.10
2012,08,04,02,21,14.10
2012,08,04,02,22,14.10
2012,08,04,02,23,14.10
2012,08,04,02,24,14.10
2012,08,04,02,25,14.10
2012,08,04,02,26,14.10
2012,08,04,02,27,14.10
2012,08,04,02,28,14.10
2012,08,04,02,29,14.10
2012,08,04,02,30,14.10
2012,08,04,02,31,14.10
2012,08,04,02,32,14.10
2012,08,04,02,33,14.10
2012,08,04,02,34,14.10
2012,08,04,02,35,14.10
2012,08,04,02,36,14.10
2012,08,04,02,37,14.10
2012,08,04,02,38,14.10
2012,08,04,02,39,14.10
2012,08,04,02,40,14.10
2012,08,04,02,41,14.00
2012,08,04,02,42,14.00
2012,08,04,02,43,14.00
2012,08,04,02,44,14.00
2012,08,04,02,45,14.00
2012,08,04,02,46,14.00
2012,08,04,02,47,14.00
2012,08,04,02,48,14.00
2012,08,04,02,49,14.00
2012,08,04,02,50,14.00
2012,08,04,02,51,14.00
2012,08,04,02,52,14.00
2012,08,04,02,53,14.00
2012,08,04,02,54,14.00
2012,08,04,02,55,13.90
2012,08,04,02,56,13.90
2012,08,04,02,57,13.90
2012,08,04,02,58,13.90
2012,08,04,02,59,13.90
2012,08,04,03,00,13.90
2012,08,04,03,01,13.90
2012,08,04,03,02,13.80
2012,08,04,03,03,13.80
2012,08,04,03,04,13.80
2012,08,04,03,05,13.80
2012,08,04,03,06,13.80
2012,08,04,03,07,13.80
2012,08,04,03,08,13.80
2012,08,04,03,09,13.80
2012,08,04,03,10,13.80
2012,08,04,03,11,13.80
2012,08,04,03,12,13.80
2012,08,04,03,13,13.80
2012,08,04,03,14,13.80
2012,08,04,03,15,13.80
2012,08,04,03,16,13.80
2012,08,04,03,17,13.80
2012,08,04,03,18,13.80
2012,08,04,03,19,13.80
2012,08,04,03,20,13.80
2012,08,04,03,21,13.80
2012,08,04,03,22,13.80
2012,08,04,03,23,13.70
2012,08,04,03,24,13.70
2012,08,04,03,25,13.70
2012,08,04,03,26,13.70
2012,08,04,03,27,13.70
2012,08,04,03,28,13.70
2012,08,04,03,29,13.70
2012,08,04,03,30,13.70
2012,08,04,03,31,13.70
2012,08,04,03,32,13.70
2012,08,04,03,33,13.70
2012,08,04,03,34,13.80
2012,08,04,03,35,13.80
2012,08,04,03,36,13.80
2012,08,04,03,37,13.80
2012,08,04,03,38,13.80
2012,08,04,03,39,13.80
2012,08,04,03,40,13.70
2012,08,04,03,41,13.70
2012,08,04,03,42,13.70
2012,08,04,03,43,13.70
2012,08,04,03,44,13.70
2012,08,04,03,45,13.70
2012,08,04,03,46,13.60
2012,08,04,03,47,13.60
2012,08,04,03,48,13.60
2012,08,04,03,49,13.60
2012,08,04,03,50,13.60
2012,08,04,03,51,13.60
2012,08,04,03,52,13.60
2012,08,04,03,53,13.60
2012,08,04,03,54,13.70
2012,08,04,03,55,13.70
2012,08,04,03,56,13.70
2012,08,04,03,57,13.70
2012,08,04,03,58,13.70
2012,08,04,03,59,13.70
2012,08,04,04,00,13.70
2012,08,04,04,01,13.80
2012,08,04,04,02,13.80
2012,08,04,04,03,13.70
2012,08,04,04,04,13.70
2012,08,04,04,05,13.70
2012,08,04,04,06,13.70
2012,08,04,04,07,13.70
2012,08,04,04,08,13.70
2012,08,04,04,09,13.70
2012,08,04,04,10,13.70
2012,08,04,04,11,13.70
2012,08,04,04,12,13.70
2012,08,04,04,13,13.70
2012,08,04,04,14,13.60
2012,08,04,04,15,13.60
2012,08,04,04,16,13.60
2012,08,04,04,17,13.70
2012,08,04,04,18,13.70
2012,08,04,04,19,13.70
2012,08,04,04,20,13.70
2012,08,04,04,21,13.60
2012,08,04,04,22,13.60
2012,08,04,04,23,13.60
2012,08,04,04,24,13.60
2012,08,04,04,25,13.60
2012,08,04,04,26,13.60
2012,08,04,04,27,13.60
2012,08,04,04,28,13.60
2012,08,04,04,29,13.70
2012,08,04,04,30,13.70
2012,08,04,04,31,13.70
2012,08,04,04,32,13.70
2012,08,04,04,33,13.70
2012,08,04,04,34,13.80
2012,08,04,04,35,13.80
2012,08,04,04,36,13.80
2012,08,04,04,37,13.90
2012,08,04,04,38,13.80
2012,08,04,04,39,13.80
2012,08,04,04,40,13.80
2012,08,04,04,41,13.80
2012,08,04,04,42,13.80
2012,08,04,04,43,13.80
2012,08,04,04,44,13.80
2012,08,04,04,45,13.80
2012,08,04,04,46,13.80
2012,08,04,04,47,13.70
2012,08,04,04,48,13.70
2012,08,04,04,49,13.70
2012,08,04,04,50,13.70
2012,08,04,04,51,13.70
2012,08,04,04,52,13.70
2012,08,04,04,53,13.70
2012,08,04,04,54,13.70
2012,08,04,04,55,13.70
2012,08,04,04,56,13.70
2012,08,04,04,57,13.70
2012,08,04,04,58,13.70
2012,08,04,04,59,13.70
2012,08,04,05,00,13.60
2012,08,04,05,01,13.60
2012,08,04,05,02,13.60
2012,08,04,05,03,13.50
2012,08,04,05,04,13.50
2012,08,04,05,05,13.50
2012,08,04,05,06,13.40
2012,08,04,05,07,13.40
2012,08,04,05,08,13.40
2012,08,04,05,09,13.40
2012,08,04,05,10,13.50
2012,08,04,05,11,13.50
2012,08,04,05,12,13.50
2012,08,04,05,13,13.50
2012,08,04,05,14,13.40
2012,08,04,05,15,13.40
2012,08,04,05,16,13.40
2012,08,04,05,17,13.40
2012,08,04,05,18,13.30
2012,08,04,05,19,13.30
2012,08,04,05,20,13.30
2012,08,04,05,21,13.30
2012,08,04,05,22,13.20
2012,08,04,05,23,13.20
2012,08,04,05,24,13.20
2012,08,04,05,25,13.20
2012,08,04,05,26,13.20
2012,08,04,05,27,13.20
2012,08,04,05,28,13.20
2012,08,04,05,29,13.20
2012,08,04,05,30,13.20
2012,08,04,05,31,13.20
2012,08,04,05,32,13.20
2012,08,04,05,33,13.20
2012,08,04,05,34,13.20
2012,08,04,05,35,13.20
2012,08,04,05,36,13.20
2012,08,04,05,37,13.20
2012,08,04,05,38,13.20
2012,08,04,05,39,13.20
2012,08,04,05,40,13.20
2012,08,04,05,41,13.20
2012,08,04,05,42,13.20
2012,08,04,05,43,13.20
2012,08,04,05,44,13.20
2012,08,04,05,45,13.20
2012,08,04,05,46,13.20
2012,08,04,05,47,13.20
2012,08,04,05,48,13.20
2012,08,04,05,49,13.20
2012,08,04,05,50,13.20
2012,08,04,05,51,13.20
2012,08,04,05,52,13.20
2012,08,04,05,53,13.20
2012,08,04,05,54,13.20
2012,08,04,05,55,13.20
2012,08,04,05,56,13.10
2012,08,04,05,57,13.10
2012,08,04,05,58,13.10
2012,08,04,05,59,13.10
2012,08,04,06,00,13.10
2012,08,04,06,01,13.10
2012,08,04,06,02,13.10
2012,08,04,06,03,13.10
2012,08,04,06,04,13.10
2012,08,04,06,05,13.10
2012,08,04,06,06,13.10
2012,08,04,06,07,13.10
2012,08,04,06,08,13.00
2012,08,04,06,09,13.00
2012,08,04,06,10,13.00
2012,08,04,06,11,13.00
2012,08,04,06,12,13.00
2012,08,04,06,13,13.00
2012,08,04,06,14,13.00
2012,08,04,06,15,13.00
2012,08,04,06,16,13.00
2012,08,04,06,17,13.00
2012,08,04,06,18,13.00
2012,08,04,06,19,13.00
2012,08,04,06,20,13.00
2012,08,04,06,21,13.10
2012,08,04,06,22,13.10
2012,08,04,06,23,13.10
2012,08,04,06,24,13.10
2012,08,04,06,25,13.10
2012,08,04,06,26,13.10
2012,08,04,06,27,13.20
2012,08,04,06,28,13.20
2012,08,04,06,29,13.20
2012,08,04,06,30,13.20
2012,08,04,06,31,13.20
2012,08,04,06,32,13.20
2012,08,04,06,33,13.20
2012,08,04,06,34,13.20
2012,08,04,06,35,13.20
2012,08,04,06,36,13.30
2012,08,04,06,37,13.30
2012,08,04,06,38,13.30
2012,08,04,06,39,13.30
2012,08,04,06,40,13.40
2012,08,04,06,41,13.40
2012,08,04,06,42,13.40
2012,08,04,06,43,13.40
2012,08,04,06,44,13.40
2012,08,04,06,45,13.40
2012,08,04,06,46,13.40
2012,08,04,06,47,13.40
2012,08,04,06,48,13.40
2012,08,04,06,49,13.40
2012,08,04,06,50,13.40
2012,08,04,06,51,13.40
2012,08,04,06,52,13.50
2012,08,04,06,53,13.50
2012,08,04,06,54,13.50
2012,08,04,06,55,13.40
2012,08,04,06,56,13.50
2012,08,04,06,57,13.50
2012,08,04,06,58,13.50
2012,08,04,06,59,13.50
2012,08,04,07,00,13.50
2012,08,04,07,01,13.60
2012,08,04,07,02,13.60
2012,08,04,07,03,13.70
2012,08,04,07,04,13.70
2012,08,04,07,05,13.70
2012,08,04,07,06,13.80
2012,08,04,07,07,13.80
2012,08,04,07,08,13.80
2012,08,04,07,09,13.90
2012,08,04,07,10,13.90
2012,08,04,07,11,13.90
2012,08,04,07,12,13.90
2012,08,04,07,13,13.90
2012,08,04,07,14,13.80
2012,08,04,07,15,13.90
2012,08,04,07,16,13.90
2012,08,04,07,17,14.00
2012,08,04,07,18,14.00
2012,08,04,07,19,14.00
2012,08,04,07,20,14.00
2012,08,04,07,21,14.00
2012,08,04,07,22,14.00
2012,08,04,07,23,14.00
2012,08,04,07,24,14.00
2012,08,04,07,25,14.10
2012,08,04,07,26,14.10
2012,08,04,07,27,14.20
2012,08,04,07,28,14.20
2012,08,04,07,29,14.20
2012,08,04,07,30,14.20
2012,08,04,07,31,14.20
2012,08,04,07,32,14.20
2012,08,04,07,33,14.20
2012,08,04,07,34,14.20
2012,08,04,07,35,14.30
2012,08,04,07,36,14.30
2012,08,04,07,37,14.30
2012,08,04,07,38,14.40
2012,08,04,07,39,14.40
2012,08,04,07,40,14.50
2012,08,04,07,41,14.50
2012,08,04,07,42,14.50
2012,08,04,07,43,14.60
2012,08,04,07,44,14.60
2012,08,04,07,45,14.60
2012,08,04,07,46,14.60
2012,08,04,07,47,14.70
2012,08,04,07,48,14.70
2012,08,04,07,49,14.70
2012,08,04,07,50,14.80
2012,08,04,07,51,14.80
2012,08,04,07,52,14.80
2012,08,04,07,53,14.80
2012,08,04,07,54,14.90
2012,08,04,07,55,14.90
2012,08,04,07,56,14.90
2012,08,04,07,57,14.90
2012,08,04,07,58,14.90
2012,08,04,07,59,15.00
2012,08,04,08,00,15.00
2012,08,04,08,01,15.00
2012,08,04,08,02,15.10
2012,08,04,08,03,15.10
2012,08,04,08,04,15.10
2012,08,04,08,05,15.20
2012,08,04,08,06,15.20
2012,08,04,08,07,15.20
2012,08,04,08,08,15.30
2012,08,04,08,09,15.30
2012,08,04,08,10,15.30
2012,08,04,08,11,15.30
2012,08,04,08,12,15.40
2012,08,04,08,13,15.40
2012,08,04,08,14,15.40
2012,08,04,08,15,15.40
2012,08,04,08,16,15.50
2012,08,04,08,17,15.50
2012,08,04,08,18,15.60
2012,08,04,08,19,15.60
2012,08,04,08,20,15.60
2012,08,04,08,21,15.70
2012,08,04,08,22,15.80
2012,08,04,08,23,15.80
2012,08,04,08,24,15.90
2012,08,04,08,25,16.00
2012,08,04,08,26,16.00
2012,08,04,08,27,16.10
2012,08,04,08,28,16.20
2012,08,04,08,29,16.30
2012,08,04,08,30,16.40
2012,08,04,08,31,16.50
2012,08,04,08,32,16.60
2012,08,04,08,33,16.70
2012,08,04,08,34,16.80
2012,08,04,08,35,16.80
2012,08,04,08,36,16.90
2012,08,04,08,37,17.00
2012,08,04,08,38,17.10
2012,08,04,08,39,17.20
2012,08,04,08,40,17.30
2012,08,04,08,41,17.30
2012,08,04,08,42,17.40
2012,08,04,08,43,17.40
2012,08,04,08,44,17.40
2012,08,04,08,45,17.40
2012,08,04,08,46,17.50
2012,08,04,08,47,17.50
2012,08,04,08,48,17.60
2012,08,04,08,49,17.60
2012,08,04,08,50,17.60
2012,08,04,08,51,17.60
2012,08,04,08,52,17.60
2012,08,04,08,53,17.60
2012,08,04,08,54,17.70
2012,08,04,08,55,17.70
2012,08,04,08,56,17.70
2012,08,04,08,57,17.80
2012,08,04,08,58,17.80
2012,08,04,08,59,17.80
2012,08,04,09,00,17.90
2012,08,04,09,01,18.00
2012,08,04,09,02,18.00
2012,08,04,09,03,18.10
2012,08,04,09,04,18.20
2012,08,04,09,05,18.30
2012,08,04,09,06,18.40
2012,08,04,09,07,18.40
2012,08,04,09,08,18.50
2012,08,04,09,09,18.60
2012,08,04,09,10,18.60
2012,08,04,09,11,18.70
2012,08,04,09,12,18.70
2012,08,04,09,13,18.70
2012,08,04,09,14,18.70
2012,08,04,09,15,18.70
2012,08,04,09,16,18.70
2012,08,04,09,17,18.70
2012,08,04,09,18,18.70
2012,08,04,09,19,18.70
2012,08,04,09,20,18.70
2012,08,04,09,21,18.80
2012,08,04,09,22,18.70
2012,08,04,09,23,18.70
2012,08,04,09,24,18.70
2012,08,04,09,25,18.70
2012,08,04,09,26,18.70
2012,08,04,09,27,18.70
2012,08,04,09,28,18.70
2012,08,04,09,29,18.70
2012,08,04,09,30,18.80
2012,08,04,09,31,18.90
2012,08,04,09,32,19.00
2012,08,04,09,33,19.00
2012,08,04,09,34,19.10
2012,08,04,09,35,19.20
2012,08,04,09,36,19.20
2012,08,04,09,37,19.20
2012,08,04,09,38,19.30
2012,08,04,09,39,19.30
2012,08,04,09,40,19.40
2012,08,04,09,41,19.50
2012,08,04,09,42,19.50
2012,08,04,09,43,19.60
2012,08,04,09,44,19.70
2012,08,04,09,45,19.80
2012,08,04,09,46,19.80
2012,08,04,09,47,19.80
2012,08,04,09,48,19.90
2012,08,04,09,49,19.90
2012,08,04,09,50,19.90
2012,08,04,09,51,20.00
2012,08,04,09,52,20.00
2012,08,04,09,53,20.10
2012,08,04,09,54,20.10
2012,08,04,09,55,20.10
2012,08,04,09,56,20.10
2012,08,04,09,57,20.20
2012,08,04,09,58,20.20
2012,08,04,09,59,20.20
2012,08,04,10,00,20.20
2012,08,04,10,01,20.20
2012,08,04,10,02,20.20
2012,08,04,10,03,20.20
2012,08,04,10,04,20.20
2012,08,04,10,05,20.20
2012,08,04,10,06,20.20
2012,08,04,10,07,20.20
2012,08,04,10,08,20.30
2012,08,04,10,09,20.30
2012,08,04,10,10,20.30
2012,08,04,10,11,20.30
2012,08,04,10,12,20.40
2012,08,04,10,13,20.40
2012,08,04,10,14,20.50
2012,08,04,10,15,20.50
2012,08,04,10,16,20.60
2012,08,04,10,17,20.60
2012,08,04,10,18,20.60
2012,08,04,10,19,20.70
2012,08,04,10,20,20.70
2012,08,04,10,21,20.80
2012,08,04,10,22,20.80
2012,08,04,10,23,20.80
2012,08,04,10,24,20.90
2012,08,04,10,25,20.90
2012,08,04,10,26,21.00
2012,08,04,10,27,21.00
2012,08,04,10,28,21.10
2012,08,04,10,29,21.20
2012,08,04,10,30,21.20
2012,08,04,10,31,21.30
2012,08,04,10,32,21.30
2012,08,04,10,33,21.20
2012,08,04,10,34,21.20
2012,08,04,10,35,21.30
2012,08,04,10,36,21.30
2012,08,04,10,37,21.30
2012,08,04,10,38,21.30
2012,08,04,10,39,21.40
2012,08,04,10,40,21.40
2012,08,04,10,41,21.40
2012,08,04,10,42,21.50
2012,08,04,10,43,21.50
2012,08,04,10,44,21.50
2012,08,04,10,45,21.50
2012,08,04,10,46,21.50
2012,08,04,10,47,21.40
2012,08,04,10,48,21.40
2012,08,04,10,49,21.40
2012,08,04,10,50,21.40
2012,08,04,10,51,21.40
2012,08,04,10,52,21.40
2012,08,04,10,53,21.40
2012,08,04,10,54,21.40
2012,08,04,10,55,21.40
2012,08,04,10,56,21.40
2012,08,04,10,57,21.40
2012,08,04,10,58,21.40
2012,08,04,10,59,21.40
2012,08,04,11,00,21.40
2012,08,04,11,01,21.50
2012,08,04,11,02,21.50
2012,08,04,11,03,21.60
2012,08,04,11,04,21.60
2012,08,04,11,05,21.60
2012,08,04,11,06,21.60
2012,08,04,11,07,21.70
2012,08,04,11,08,21.70
2012,08,04,11,09,21.80
2012,08,04,11,10,21.80
2012,08,04,11,11,21.80
2012,08,04,11,12,21.90
2012,08,04,11,13,21.90
2012,08,04,11,14,22.00
2012,08,04,11,15,22.10
2012,08,04,11,16,22.30
2012,08,04,11,17,22.30
2012,08,04,11,18,22.40
2012,08,04,11,19,22.40
2012,08,04,11,20,22.50
2012,08,04,11,21,22.60
2012,08,04,11,22,22.60
2012,08,04,11,23,22.70
2012,08,04,11,24,22.80
2012,08,04,11,25,22.80
2012,08,04,11,26,22.80
2012,08,04,11,27,22.80
2012,08,04,11,28,22.80
2012,08,04,11,29,22.80
2012,08,04,11,30,22.90
2012,08,04,11,31,22.90
2012,08,04,11,32,23.00
2012,08,04,11,33,23.00
2012,08,04,11,34,23.10
2012,08,04,11,35,23.20
2012,08,04,11,36,23.20
2012,08,04,11,37,23.30
2012,08,04,11,38,23.40
2012,08,04,11,39,23.50
2012,08,04,11,40,23.60
2012,08,04,11,41,23.60
2012,08,04,11,42,23.70
2012,08,04,11,43,23.70
2012,08,04,11,44,23.70
2012,08,04,11,45,23.60
2012,08,04,11,46,23.60
2012,08,04,11,47,23.60
2012,08,04,11,48,23.60
2012,08,04,11,49,23.60
2012,08,04,11,50,23.60
2012,08,04,11,51,23.50
2012,08,04,11,52,23.50
2012,08,04,11,53,23.40
2012,08,04,11,54,23.40
2012,08,04,11,55,23.40
2012,08,04,11,56,23.30
2012,08,04,11,57,23.30
2012,08,04,11,58,23.30
2012,08,04,11,59,23.30
2012,08,04,12,00,23.40
2012,08,04,12,01,23.40
2012,08,04,12,02,23.50
2012,08,04,12,03,23.60
2012,08,04,12,04,23.60
2012,08,04,12,05,23.70
2012,08,04,12,06,23.80
2012,08,04,12,07,23.90
2012,08,04,12,08,24.00
2012,08,04,12,09,24.10
2012,08,04,12,10,24.20
2012,08,04,12,11,24.20
2012,08,04,12,12,24.20
2012,08,04,12,13,24.30
2012,08,04,12,14,24.30
2012,08,04,12,15,24.30
2012,08,04,12,16,24.20
2012,08,04,12,17,24.20
2012,08,04,12,18,24.20
2012,08,04,12,19,24.20
2012,08,04,12,20,24.20
2012,08,04,12,21,24.20
2012,08,04,12,22,24.30
2012,08,04,12,23,24.30
2012,08,04,12,24,24.30
2012,08,04,12,25,24.30
2012,08,04,12,26,24.40
2012,08,04,12,27,24.30
2012,08,04,12,28,24.30
2012,08,04,12,29,24.40
2012,08,04,12,30,24.40
2012,08,04,12,31,24.40
2012,08,04,12,32,24.40
2012,08,04,12,33,24.40
2012,08,04,12,34,24.40
2012,08,04,12,35,24.40
2012,08,04,12,36,24.40
2012,08,04,12,37,24.40
2012,08,04,12,38,24.40
2012,08,04,12,39,24.40
2012,08,04,12,40,24.50
2012,08,04,12,41,24.60
2012,08,04,12,42,24.70
2012,08,04,12,43,24.70
2012,08,04,12,44,24.80
2012,08,04,12,45,24.90
2012,08,04,12,46,24.90
2012,08,04,12,47,25.00
2012,08,04,12,48,25.00
2012,08,04,12,49,25.10
2012,08,04,12,50,25.20
2012,08,04,12,51,25.30
2012,08,04,12,52,25.30
2012,08,04,12,53,25.40
2012,08,04,12,54,25.50
2012,08,04,12,55,25.50
2012,08,04,12,56,25.60
2012,08,04,12,57,25.50
2012,08,04,12,58,25.30
2012,08,04,12,59,25.10
2012,08,04,13,00,24.90
2012,08,04,13,01,24.60
2012,08,04,13,02,24.50
2012,08,04,13,03,24.40
2012,08,04,13,04,24.40
2012,08,04,13,05,24.40
2012,08,04,13,06,24.40
2012,08,04,13,07,24.40
2012,08,04,13,08,24.50
2012,08,04,13,09,24.60
2012,08,04,13,10,24.70
2012,08,04,13,11,24.70
2012,08,04,13,12,24.80
2012,08,04,13,13,24.80
2012,08,04,13,14,24.90
2012,08,04,13,15,24.90
2012,08,04,13,16,25.00
2012,08,04,13,17,25.00
2012,08,04,13,18,25.10
2012,08,04,13,19,25.20
2012,08,04,13,20,25.20
2012,08,04,13,21,25.30
2012,08,04,13,22,25.30
2012,08,04,13,23,25.30
2012,08,04,13,24,25.30
2012,08,04,13,25,25.20
2012,08,04,13,26,25.10
2012,08,04,13,27,24.90
2012,08,04,13,28,24.70
2012,08,04,13,29,24.50
2012,08,04,13,30,24.40
2012,08,04,13,31,24.30
2012,08,04,13,32,24.30
2012,08,04,13,33,24.20
2012,08,04,13,34,24.10
2012,08,04,13,35,24.10
2012,08,04,13,36,24.00
2012,08,04,13,37,24.00
2012,08,04,13,38,24.00
2012,08,04,13,39,24.10
2012,08,04,13,40,24.10
2012,08,04,13,41,24.20
2012,08,04,13,42,24.30
2012,08,04,13,43,24.50
2012,08,04,13,44,24.60
2012,08,04,13,45,24.70
2012,08,04,13,46,24.80
2012,08,04,13,47,24.80
2012,08,04,13,48,24.90
2012,08,04,13,49,25.00
2012,08,04,13,50,25.10
2012,08,04,13,51,25.20
2012,08,04,13,52,25.20
2012,08,04,13,53,25.20
2012,08,04,13,54,25.10
2012,08,04,13,55,24.90
2012,08,04,13,56,24.80
2012,08,04,13,57,24.60
2012,08,04,13,58,24.50
2012,08,04,13,59,24.50
2012,08,04,14,00,24.40
2012,08,04,14,01,24.30
2012,08,04,14,02,24.30
2012,08,04,14,03,24.20
2012,08,04,14,04,24.10
2012,08,04,14,05,24.10
2012,08,04,14,06,24.10
2012,08,04,14,07,24.10
2012,08,04,14,08,24.10
2012,08,04,14,09,24.10
2012,08,04,14,10,24.10
2012,08,04,14,11,23.90
2012,08,04,14,12,23.80
2012,08,04,14,13,23.80
2012,08,04,14,14,23.70
2012,08,04,14,15,23.70
2012,08,04,14,16,23.70
2012,08,04,14,17,23.60
2012,08,04,14,18,23.70
2012,08,04,14,19,23.70
2012,08,04,14,20,23.80
2012,08,04,14,21,23.90
2012,08,04,14,22,24.10
2012,08,04,14,23,24.30
2012,08,04,14,24,24.40
2012,08,04,14,25,24.60
2012,08,04,14,26,24.70
2012,08,04,14,27,24.80
2012,08,04,14,28,24.80
2012,08,04,14,29,24.80
2012,08,04,14,30,24.80
2012,08,04,14,31,24.70
2012,08,04,14,32,24.50
2012,08,04,14,33,24.30
2012,08,04,14,34,24.20
2012,08,04,14,35,24.10
2012,08,04,14,36,24.00
2012,08,04,14,37,23.90
2012,08,04,14,38,24.00
2012,08,04,14,39,24.00
2012,08,04,14,40,24.10
2012,08,04,14,41,24.30
2012,08,04,14,42,24.30
2012,08,04,14,43,24.30
2012,08,04,14,44,24.20
2012,08,04,14,45,24.10
2012,08,04,14,46,24.10
2012,08,04,14,47,24.10
2012,08,04,14,48,24.10
2012,08,04,14,49,24.10
2012,08,04,14,50,24.10
2012,08,04,14,51,24.10
2012,08,04,14,52,24.20
2012,08,04,14,53,24.30
2012,08,04,14,54,24.40
2012,08,04,14,55,24.50
2012,08,04,14,56,24.60
2012,08,04,14,57,24.60
2012,08,04,14,58,24.70
2012,08,04,14,59,24.70
2012,08,04,15,00,24.70
2012,08,04,15,01,24.70
2012,08,04,15,02,24.70
2012,08,04,15,03,24.70
2012,08,04,15,04,24.70
2012,08,04,15,05,24.80
2012,08,04,15,06,24.80
2012,08,04,15,07,24.70
2012,08,04,15,08,24.70
2012,08,04,15,09,24.60
2012,08,04,15,10,24.50
2012,08,04,15,11,24.40
2012,08,04,15,12,24.30
2012,08,04,15,13,24.20
2012,08,04,15,14,24.10
2012,08,04,15,15,24.10
2012,08,04,15,16,24.10
2012,08,04,15,17,24.20
2012,08,04,15,18,24.30
2012,08,04,15,19,24.40
2012,08,04,15,20,24.50
2012,08,04,15,21,24.60
2012,08,04,15,22,24.60
2012,08,04,15,23,24.60
2012,08,04,15,24,24.50
2012,08,04,15,25,24.40
2012,08,04,15,26,24.40
2012,08,04,15,27,24.30
2012,08,04,15,28,24.30
2012,08,04,15,29,24.30
2012,08,04,15,30,24.20
2012,08,04,15,31,24.20
2012,08,04,15,32,24.10
2012,08,04,15,33,24.20
2012,08,04,15,34,24.20
2012,08,04,15,35,24.30
2012,08,04,15,36,24.30
2012,08,04,15,37,24.30
2012,08,04,15,38,24.20
2012,08,04,15,39,24.20
2012,08,04,15,40,24.20
2012,08,04,15,41,24.20
2012,08,04,15,42,24.20
2012,08,04,15,43,24.30
2012,08,04,15,44,24.30
2012,08,04,15,45,24.40
2012,08,04,15,46,24.50
2012,08,04,15,47,24.70
2012,08,04,15,48,25.00
2012,08,04,15,49,25.10
2012,08,04,15,50,25.30
2012,08,04,15,51,25.40
2012,08,04,15,52,25.50
2012,08,04,15,53,25.60
2012,08,04,15,54,25.70
2012,08,04,15,55,25.80
2012,08,04,15,56,25.80
2012,08,04,15,57,25.80
2012,08,04,15,58,25.80
2012,08,04,15,59,25.80
2012,08,04,16,00,25.80
2012,08,04,16,01,25.80
2012,08,04,16,02,25.80
2012,08,04,16,03,25.80
2012,08,04,16,04,25.70
2012,08,04,16,05,25.70
2012,08,04,16,06,25.70
2012,08,04,16,07,25.60
2012,08,04,16,08,25.60
2012,08,04,16,09,25.60
2012,08,04,16,10,25.60
2012,08,04,16,11,25.50
2012,08,04,16,12,25.50
2012,08,04,16,13,25.60
2012,08,04,16,14,25.60
2012,08,04,16,15,25.70
2012,08,04,16,16,25.70
2012,08,04,16,17,25.80
2012,08,04,16,18,25.80
2012,08,04,16,19,25.90
2012,08,04,16,20,26.00
2012,08,04,16,21,26.00
2012,08,04,16,22,26.10
2012,08,04,16,23,26.10
2012,08,04,16,24,26.10
2012,08,04,16,25,26.00
2012,08,04,16,26,25.90
2012,08,04,16,27,25.80
2012,08,04,16,28,25.80
2012,08,04,16,29,25.70
2012,08,04,16,30,25.60
2012,08,04,16,31,25.50
2012,08,04,16,32,25.50
2012,08,04,16,33,25.40
2012,08,04,16,34,25.30
2012,08,04,16,35,25.30
2012,08,04,16,36,25.40
2012,08,04,16,37,25.40
2012,08,04,16,38,25.50
2012,08,04,16,39,25.60
2012,08,04,16,40,25.60
2012,08,04,16,41,25.80
2012,08,04,16,42,25.80
2012,08,04,16,43,25.80
2012,08,04,16,44,25.70
2012,08,04,16,45,25.70
2012,08,04,16,46,25.60
2012,08,04,16,47,25.50
2012,08,04,16,48,25.40
2012,08,04,16,49,25.30
2012,08,04,16,50,25.10
2012,08,04,16,51,25.00
2012,08,04,16,52,24.90
2012,08,04,16,53,24.80
2012,08,04,16,54,24.70
2012,08,04,16,55,24.60
2012,08,04,16,56,24.50
2012,08,04,16,57,24.50
2012,08,04,16,58,24.40
2012,08,04,16,59,24.50
2012,08,04,17,00,24.40
2012,08,04,17,01,24.40
2012,08,04,17,02,24.30
2012,08,04,17,03,24.30
2012,08,04,17,04,24.40
2012,08,04,17,05,24.50
2012,08,04,17,06,24.50
2012,08,04,17,07,24.50
2012,08,04,17,08,24.50
2012,08,04,17,09,24.60
2012,08,04,17,10,24.70
2012,08,04,17,11,24.70
2012,08,04,17,12,24.80
2012,08,04,17,13,24.90
2012,08,04,17,14,25.00
2012,08,04,17,15,25.00
2012,08,04,17,16,25.00
2012,08,04,17,17,25.00
2012,08,04,17,18,24.90
2012,08,04,17,19,24.90